Wind_Speed
26 26 27 27 28 28 29 29 29 29 29 29 29 30 30 30 31 33 33 33 33 33 34 34 34 33 34 35 35 35 35 34 34 34 34 35 35 35
26 26 27 27 28 28 28 29 29 28 29 30 30 30 30 29 29 30 31 31 31 31 32 32 33 33 33 34 35 35 34 34 34 34 34 34 34 34
24 25 26 26 27 27 28 28 28 28 28 28 28 28 28 28 28 28 28 29 29 30 30 30 31 32 32 33 33 33 33 32 32 32 32 33 33 34
23 24 25 25 26 26 26 26 26 26 26 26 27 27 27 27 27 27 27 27 28 28 29 29 30 30 30 31 31 31 31 31 31 31 32 32 32 32
23 23 23 24 24 25 25 25 24 24 24 25 25 26 26 26 26 26 26 26 26 27 28 29 28 28 29 29 30 30 30 30 31 30 30 30 30 31
22 22 22 22 22 22 22 22 22 22 22 22 23 24 24 25 25 25 25 25 26 27 27 27 28 27 27 28 29 29 29 28 28 28 28 28 29 30
20 20 20 19 19 18 19 19 20 20 20 20 20 20 21 22 23 23 23 23 23 24 25 25 26 26 26 26 26 26 26 26 26 26 26 25 26 26
18 18 18 18 17 17 18 17 17 17 17 17 17 18 18 19 19 20 20 20 20 21 22 23 23 23 23 23 24 24 24 24 24 23 23 23 23 24
16 16 16 15 16 15 15 15 15 15 15 15 15 16 16 16 16 17 17 17 18 18 19 19 20 20 20 20 20 21 22 21 21 21 21 22 22 23
13 12 12 12 12 11 12 13 12 12 12 12 12 13 13 13 13 14 14 15 15 16 16 17 18 17 17 17 17 17 17 18 19 20 20 20 21 21
10 9 9 9 8 9 10 10 10 9 9 9 9 10 10 10 10 10 11 11 12 13 14 14 15 15 14 14 14 15 15 16 17 17 18 18 18 19
6 6 6 6 6 6 7 6 6 6 6 6 6 6 6 7 7 7 8 9 9 10 10 11 12 12 13 13 14 14 15 15 16 16 16 16 17 17
2 2 2 2 2 2 2 3 3 3 3 3 3 3 4 5 5 5 6 6 7 7 8 9 10 11 11 12 13 13 14 15 15 16 16 16 16 17
2 2 2 2 3 2 2 1 1 0 0 0 0 1 2 3 3 4 5 5 6 7 8 8 9 9 11 11 12 13 13 14 15 15 16 16 17 18
7 6 6 6 6 5 5 4 4 4 3 3 3 2 3 3 3 3 4 5 6 7 7 8 9 10 10 11 11 12 13 14 15 16 17 18 18 19
10 10 9 8 8 7 7 7 7 6 5 4 4 4 4 4 4 4 5 6 6 6 7 8 9 9 10 11 12 13 14 15 16 17 17 18 19 19
11 11 10 10 10 9 8 8 8 7 6 6 5 5 5 5 5 5 6 6 7 7 8 9 10 11 12 13 14 14 15 16 17 18 18 18 19 20
11 12 12 11 10 10 9 9 8 8 8 7 7 6 6 6 6 6 7 7 8 9 10 11 11 12 14 15 15 16 16 17 18 19 19 19 20 21
12 12 12 11 11 10 10 10 9 9 9 8 8 8 8 8 8 8 8 9 10 11 12 12 12 13 14 15 17 18 18 18 19 19 20 21 21 22
14 13 12 12 11 10 10 10 10 9 9 9 9 9 9 9 10 10 10 10 12 13 14 14 15 15 16 16 17 19 20 21 21 21 22 22 23 23
13 13 12 11 11 11 10 9 9 10 10 10 10 10 10 10 11 12 12 13 13 15 16 17 17 18 18 19 19 20 21 23 23 24 24 25 25 25
14 13 12 12 11 11 10 10 10 10 10 10 10 11 12 12 13 14 14 15 16 17 18 19 20 20 21 21 21 22 22 23 25 25 25 26 26 26
13 13 12 12 12 11 11 11 11 11 11 12 12 13 13 14 15 15 16 17 18 18 19 20 21 22 23 24 24 25 25 25 26 26 26 27 28 28
Wind_Direction
272 270 268 267 266 265 263 262 263 263 262 261 262 264 265 265 265 265 265 265 264 264 264 264 264 265 266 266 266 266 266 266 267 268 269 270 270 270
271 269 266 265 266 265 265 264 264 264 263 261 261 263 264 265 265 266 267 265 266 265 264 264 264 264 265 266 265 265 266 266 267 269 269 270 271 271
274 271 268 266 265 265 266 266 264 263 263 263 263 263 264 264 263 265 265 265 266 266 265 263 262 262 264 264 265 266 266 266 267 268 268 269 270 271
274 272 270 268 266 265 265 264 264 263 263 263 263 264 265 265 265 266 265 265 265 266 264 262 262 262 263 264 266 266 265 267 268 269 269 269 271 272
273 272 270 269 267 265 262 262 264 264 265 265 264 264 264 264 264 264 263 263 264 265 265 263 263 264 264 265 266 266 265 267 269 269 270 271 271 271
273 271 269 269 267 264 263 263 263 264 263 264 265 265 265 264 265 264 264 263 263 263 263 263 264 264 265 265 266 266 266 269 269 269 270 272 273 271
272 270 269 269 268 265 264 262 263 263 264 264 264 264 263 263 265 266 265 263 262 263 263 264 265 265 265 266 267 267 267 269 271 271 273 273 273 271
272 270 270 269 266 264 263 263 264 264 263 264 263 262 262 264 265 266 265 265 265 264 265 266 266 266 267 267 267 267 268 270 271 273 273 272 272 273
273 271 269 266 263 262 261 261 262 263 263 262 261 262 262 263 263 264 266 267 267 267 267 269 268 269 270 270 270 271 270 269 270 271 272 273 273 275
272 270 265 262 257 257 260 262 264 263 261 260 261 261 258 262 266 269 271 271 271 270 271 271 271 273 275 274 273 273 273 271 272 275 275 276 278 279
270 265 259 259 259 261 262 260 260 261 261 261 261 262 262 268 272 274 273 273 273 274 274 275 277 276 276 275 275 275 275 276 275 275 274 276 279 281
274 269 261 261 263 261 261 262 264 262 256 255 257 261 264 271 275 280 281 279 277 277 278 280 281 280 278 278 277 277 278 280 279 279 279 280 282 284
286 274 258 255 269 271 266 257 248 252 251 253 256 266 281 283 287 290 290 289 286 287 285 285 285 285 282 283 281 279 279 281 282 282 283 286 288 288
66 74 81 69 64 70 79 82 72 41 61 60 353 334 326 318 304 291 290 287 292 295 293 292 294 294 293 292 289 286 285 286 287 288 287 287 289 290
71 74 73 74 75 78 78 76 75 77 68 56 42 21 354 344 338 332 320 309 306 302 299 300 303 304 302 299 297 294 293 292 293 294 292 290 289 291
74 75 79 81 84 82 78 75 73 71 66 59 45 31 20 10 2 351 339 332 325 319 317 316 312 310 308 306 303 300 297 296 296 297 296 294 292 291
73 76 80 84 84 82 77 73 69 64 60 51 44 37 28 17 8 3 353 347 341 334 328 322 317 313 312 310 307 305 303 301 300 299 298 297 296 294
73 78 80 79 77 74 71 66 61 60 59 55 48 40 31 21 11 359 351 343 340 337 330 324 319 317 315 313 309 306 304 302 301 300 299 297 295 294
79 79 77 75 74 71 69 66 65 63 59 52 44 37 31 22 13 2 354 346 341 339 334 328 324 321 319 317 315 311 309 306 304 302 301 299 298 296
79 76 73 72 70 69 66 65 62 57 52 45 39 33 26 19 11 2 355 347 341 337 334 330 325 321 318 316 315 313 311 309 306 305 304 301 300 298
75 73 70 68 66 64 62 59 55 48 43 38 30 24 16 9 2 357 352 348 343 339 336 332 328 324 320 317 315 314 312 310 308 307 306 304 301 299
74 73 71 67 62 59 55 51 46 40 34 26 19 12 7 3 358 354 349 345 342 338 335 332 330 328 324 321 318 316 314 311 310 308 307 305 302 300
73 70 65 60 54 50 47 43 37 30 24 17 10 5 0 356 352 348 343 340 338 336 333 331 329 327 325 323 321 318 316 313 310 309 307 306 304 302
Height
5764 5764 5764 5764 5765 5765 5766 5768 5769 5770 5770 5771 5772 5772 5772 5773 5773 5773 5774 5774 5774 5774 5774 5774 5774 5774 5774 5774 5773 5773 5772 5772 5771 5771 5770 5769 5768 5767
5756 5755 5756 5756 5757 5757 5758 5759 5760 5762 5762 5763 5763 5764 5764 5764 5764 5764 5764 5765 5765 5765 5764 5764 5764 5764 5764 5764 5764 5763 5763 5762 5762 5761 5761 5760 5759 5758
5748 5748 5748 5749 5749 5750 5750 5751 5752 5753 5753 5754 5754 5755 5755 5755 5755 5755 5756 5756 5756 5756 5756 5755 5755 5755 5755 5755 5754 5754 5754 5753 5753 5752 5751 5751 5750 5749
5741 5741 5741 5741 5741 5742 5742 5743 5744 5744 5745 5746 5746 5746 5747 5747 5747 5747 5747 5747 5747 5747 5747 5747 5746 5746 5746 5746 5745 5745 5745 5744 5744 5743 5742 5742 5741 5740
5733 5733 5733 5733 5734 5734 5735 5735 5736 5737 5737 5738 5738 5738 5739 5739 5739 5739 5739 5739 5739 5739 5739 5739 5738 5738 5738 5738 5737 5737 5736 5736 5735 5734 5733 5733 5732 5731
5726 5726 5726 5727 5727 5727 5728 5728 5729 5730 5730 5730 5731 5731 5731 5731 5732 5732 5732 5731 5731 5731 5731 5731 5730 5730 5730 5730 5729 5729 5728 5727 5726 5726 5725 5724 5723 5722
5720 5720 5720 5720 5721 5721 5722 5722 5723 5723 5723 5724 5724 5724 5724 5725 5725 5725 5725 5724 5724 5724 5723 5724 5723 5723 5722 5722 5721 5720 5720 5720 5719 5718 5718 5717 5716 5714
5714 5714 5714 5715 5715 5716 5716 5716 5717 5717 5718 5718 5718 5718 5718 5719 5719 5718 5718 5718 5718 5718 5717 5717 5716 5716 5715 5715 5714 5713 5713 5713 5712 5712 5711 5710 5709 5708
5709 5709 5709 5709 5710 5710 5711 5711 5712 5712 5713 5713 5713 5713 5713 5714 5713 5713 5712 5712 5712 5712 5712 5711 5710 5710 5709 5709 5708 5707 5707 5706 5706 5705 5705 5704 5703 5702
5704 5705 5705 5705 5706 5706 5707 5707 5708 5708 5708 5708 5708 5709 5709 5709 5709 5708 5708 5708 5707 5707 5706 5706 5706 5705 5704 5703 5703 5702 5702 5701 5700 5699 5699 5698 5697 5695
5701 5701 5702 5702 5703 5703 5704 5704 5704 5704 5704 5704 5705 5705 5705 5705 5705 5705 5704 5704 5704 5703 5703 5702 5701 5701 5700 5699 5699 5698 5697 5696 5695 5694 5693 5692 5691 5690
5699 5699 5699 5700 5700 5701 5701 5701 5702 5702 5702 5702 5702 5703 5703 5702 5702 5702 5702 5701 5701 5700 5699 5699 5698 5697 5696 5696 5695 5694 5693 5692 5691 5690 5688 5687 5686 5685
5698 5698 5698 5698 5699 5699 5699 5700 5700 5700 5700 5700 5701 5701 5701 5701 5700 5700 5700 5699 5699 5698 5697 5696 5695 5694 5693 5692 5691 5690 5689 5688 5687 5685 5684 5683 5681 5680
5698 5698 5698 5698 5698 5698 5699 5699 5699 5699 5699 5700 5700 5700 5700 5700 5699 5698 5698 5697 5697 5696 5695 5694 5693 5692 5690 5689 5688 5686 5685 5684 5683 5681 5680 5678 5677 5675
5699 5699 5699 5699 5699 5699 5699 5699 5699 5699 5700 5700 5700 5700 5700 5699 5698 5698 5697 5696 5695 5694 5693 5692 5691 5689 5688 5686 5684 5683 5682 5680 5679 5677 5675 5673 5672 5670
5701 5701 5701 5700 5701 5701 5701 5701 5701 5701 5701 5701 5701 5700 5700 5699 5698 5697 5696 5695 5694 5693 5692 5690 5688 5687 5685 5684 5682 5680 5678 5677 5675 5673 5671 5669 5667 5665
5704 5704 5703 5703 5703 5703 5703 5703 5703 5702 5702 5701 5701 5701 5700 5699 5698 5697 5696 5695 5693 5692 5690 5688 5686 5685 5683 5681 5679 5677 5675 5673 5671 5669 5666 5664 5662 5659
5707 5707 5706 5706 5706 5706 5706 5705 5705 5704 5704 5703 5702 5701 5700 5699 5698 5697 5695 5694 5692 5690 5688 5686 5684 5682 5680 5678 5676 5673 5671 5669 5666 5664 5661 5659 5657 5654
5710 5710 5710 5709 5709 5709 5709 5708 5707 5706 5705 5705 5703 5702 5701 5699 5698 5696 5695 5693 5691 5689 5687 5684 5682 5680 5677 5675 5672 5669 5666 5664 5661 5659 5656 5653 5651 5648
5714 5713 5713 5713 5712 5712 5711 5710 5709 5708 5707 5706 5705 5703 5702 5700 5698 5696 5694 5692 5690 5687 5685 5682 5679 5677 5674 5672 5669 5666 5662 5659 5656 5653 5650 5647 5644 5641
5718 5717 5717 5716 5715 5715 5714 5713 5711 5710 5709 5708 5706 5704 5703 5701 5698 5696 5694 5691 5688 5686 5683 5680 5677 5673 5670 5667 5665 5662 5658 5653 5650 5647 5644 5641 5638 5634
5721 5721 5720 5720 5719 5718 5716 5715 5714 5712 5711 5709 5707 5705 5703 5700 5698 5695 5693 5690 5687 5684 5680 5677 5673 5670 5666 5663 5659 5656 5652 5649 5644 5640 5636 5633 5629 5626
5725 5725 5724 5723 5722 5720 5719 5717 5715 5714 5712 5709 5707 5705 5702 5700 5697 5694 5691 5688 5685 5681 5678 5674 5670 5666 5662 5658 5654 5650 5646 5642 5638 5634 5631 5626 5622 5618